Content
SEND FEEDBACK

Australia Flag

TERREY HILLS, NEW SOUTH WALES


Home > Oceania > Australia > New South Wales
Elevation: 131 feet     Latitude: 33 49S     Longitude: 151 09E

WEATHER
 
SELECT A DAY
Number of Records: 342,756;   Date Range: 7/1/96 - 3/22/16
 
SHARE

PRINT THIS DATA

[ ← Previous Day ]
WEATHER ALMANAC - JANUARY 22, 2013
[ Next Day → ]
[ °C ]   °F
Weather ElementAverageHighLow
Temperature77.9 °F89.6 °F (1:30 pm)71.6 °F (1:30 am)
Dewpoint66.4 °F69.8 °F (6:30 pm)59 °F (5:00 pm)
Humidity67.7 %94 % (10:30 pm)38 % (2:00 pm)
Barometer29.81 in29.89 in (12:00 am)29.71 in (5:30 pm)
Wind Speed13.1 mph29.9 mph (11:30 pm)
Wind Gust35.7 mph (10:22 pm)
Weather ElementAverage
Visibility7.8 mi
Wind DirectionSSE (155.4 °)

Weather ElementTotal
Precipitation---
Cooling Degree Days15.6 (Base 65)
Growing Degree Days30.6 (Base 50)
Averaged from 68 records on January 22, 2013
WEATHER CONDITIONS BREAKOUT
WIND DIRECTION BREAKOUT
WEATHER BY HOUR - JANUARY 22, 2013
[ °C ]   °F
Local TimeTemperatureDewpointHumidityBarometerVisibilityWind DirectionWind SpeedGust SpeedPrecipitationEventsConditions
12:00 AM73.4 °F66.2 °F78 %29.89 inNorth (10°)9.2 mphClear
12:30 AM73.4 °F66.2 °F78 %29.86 inNorth (360°)9.2 mphClear
1:00 AM73.4 °F66.2 °F78 %29.86 inNorth (350°)9.2 mphClear
1:30 AM71.6 °F66.2 °F83 %29.86 inNNW (340°)6.9 mphClear
2:00 AM72.0 °F66.0 °F77 %29.86 inNNW (330°)6.9 mph
2:00 AM71.6 °F66.2 °F83 %29.83 inNNW (330°)6.9 mphClear
2:30 AM71.6 °F66.2 °F83 %29.83 inNNW (330°)6.9 mphClear
3:00 AM71.6 °F66.2 °F83 %29.83 inNNW (330°)6.9 mphClear
3:00 AM72.0 °F66.0 °F77 %29.83 in12.0 miNNW (330°)6.9 mphPartly Cloudy
3:30 AM71.6 °F66.2 °F83 %29.80 inNorth (360°)5.8 mphClear
4:00 AM71.6 °F66.2 °F83 %29.80 inNorth (10°)4.6 mphClear
4:30 AM71.6 °F66.2 °F83 %29.80 inNNE (20°)4.6 mphClear
5:00 AM72.0 °F67.0 °F78 %29.82 inCalm
5:00 AM71.6 °F66.2 °F83 %29.80 inCalmClear
5:30 AM71.6 °F66.2 °F83 %29.80 inNE (40°)4.6 mphClear
6:00 AM72.0 °F66.0 °F77 %29.83 in12.0 miNorth (350°)6.9 mphHaze
6:00 AM71.6 °F66.2 °F83 %29.83 inNorth (350°)6.9 mphClear
6:30 AM73.4 °F66.2 °F78 %29.83 inNorth (10°)5.8 mphClear
7:00 AM73.4 °F66.2 °F78 %29.83 inNNE (20°)5.8 mphClear
7:30 AM75.2 °F66.2 °F73 %29.83 inNorth (360°)8.1 mphClear
8:00 AM77.0 °F66.0 °F62 %29.86 inNorth (10°)11.5 mph
8:00 AM77.0 °F66.2 °F69 %29.83 inNorth (10°)11.5 mphClear
8:30 AM77.0 °F66.2 °F69 %29.83 inNorth (360°)12.7 mphClear
9:00 AM80.0 °F65.0 °F51 %29.84 in12.0 miNorth (10°)10.4 mphHaze
9:00 AM80.6 °F64.4 °F58 %29.83 inNorth (10°)10.4 mphClear
9:30 AM82.4 °F64.4 °F54 %29.80 inNE (50°)12.7 mphClear
10:00 AM82.4 °F66.2 °F58 %29.80 inNNE (20°)9.2 mphClear
10:30 AM80.6 °F66.2 °F61 %29.80 inNE (50°)11.5 mphClear
11:00 AM84.0 °F66.0 °F44 %29.81 inNE (40°)12.7 mph
11:00 AM84.2 °F66.2 °F55 %29.80 inNE (40°)12.7 mphClear
11:30 AM86.0 °F66.2 °F51 %29.80 inNE (50°)13.8 mphClear
12:00 PM85.0 °F66.0 °F44 %29.80 in16.0 miNE (50°)11.5 mphPartly Cloudy
12:00 PM86.0 °F66.2 °F51 %29.77 inNE (50°)11.5 mphClear
12:30 PM86.0 °F66.2 °F51 %29.77 inNE (50°)12.7 mphClear
1:00 PM87.8 °F66.2 °F49 %29.77 inENE (70°)16.1 mphClear
1:30 PM89.6 °F66.2 °F46 %29.74 in6.2 miNE (50°)18.4 mphScattered Clouds
2:00 PM88.0 °F66.0 °F38 %29.75 inNE (40°)20.7 mph
2:00 PM87.8 °F66.2 °F49 %29.74 in6.2 miNE (40°)20.7 mphMostly Cloudy
2:30 PM84.2 °F66.2 °F55 %29.74 in6.2 miNE (50°)19.6 mphMostly Cloudy
3:00 PM82.0 °F65.0 °F47 %29.75 in12.0 miNNE (30°)21.9 mphMostly Cloudy
3:00 PM82.4 °F64.4 °F54 %29.74 in6.2 miNNE (30°)21.9 mphMostly Cloudy
3:30 PM82.4 °F66.2 °F58 %29.74 in6.2 miNE (40°)18.4 mphMostly Cloudy
4:00 PM84.2 °F66.2 °F55 %29.77 in6.2 miNNW (330°)8.1 mphThunderstormPartly Cloudy
4:08 PM80.6 °F66.2 °F61 %29.77 in5.6 miWSW (240°)8.1 mphRain-ThunderstormLight Thunderstorms and Rain
4:30 PM80.6 °F66.2 °F61 %29.77 in3.7 miSE (140°)19.6 mphRain-ThunderstormLight Thunderstorms and Rain
5:00 PM80.0 °F59.0 °F39 %29.75 inENE (70°)21.9 mph
5:00 PM80.6 °F59.0 °F48 %29.74 in6.2 miENE (70°)21.9 mphThunderstormThunderstorm
5:09 PM80.6 °F64.4 °F58 %29.74 in6.2 miENE (60°)21.9 mphOvercast
5:30 PM82.4 °F64.4 °F54 %29.71 in6.2 miNNE (30°)18.4 mphOvercast
6:00 PM82.0 °F66.0 °F49 %29.75 in16.0 miNorth (350°)20.7 mphOvercast
6:00 PM82.4 °F66.2 °F58 %29.74 in6.2 miNorth (350°)20.7 mphOvercast
6:30 PM78.8 °F69.8 °F74 %29.74 in6.2 miNorth (360°)20.7 mphRainLight Rain
7:00 PM77.0 °F68.0 °F74 %29.77 inEast (100°)13.8 mphClear
7:30 PM78.8 °F69.8 °F74 %29.80 inNorth (350°)4.6 mphClear
8:00 PM77.0 °F69.0 °F71 %29.84 inWSW (240°)15.0 mph
8:00 PM77.0 °F69.8 °F78 %29.83 in6.2 miWSW (240°)15.0 mph
8:30 PM77.0 °F69.8 °F78 %29.83 in6.2 miSE (130°)6.9 mph
9:00 PM77.0 °F69.0 °F70 %29.81 in12.0 miNNE (30°)8.1 mphRainLight Rain
9:00 PM77.0 °F69.8 °F78 %29.80 in6.2 miNNE (30°)8.1 mphRainLight Rain
9:16 PM77.0 °F68.0 °F74 %29.80 inWSW (250°)19.6 mphClear
9:30 PM77.0 °F68.0 °F74 %29.80 inWest (280°)11.5 mphClear
10:00 PM77.0 °F66.2 °F69 %29.86 inSW (230°)12.7 mphClear
10:22 PM73.4 °F69.8 °F88 %29.86 in6.2 miSouth (190°)23.0 mph35.7 mphMostly Cloudy
10:30 PM71.6 °F69.8 °F94 %29.89 in6.2 miSouth (190°)25.3 mphScattered Clouds
10:38 PM71.6 °F68.0 °F88 %29.89 in6.2 miSSW (200°)24.2 mphMostly Cloudy
11:00 PM72.0 °F68.0 °F85 %29.89 inSouth (190°)24.2 mph
11:00 PM71.6 °F68.0 °F88 %29.86 in6.2 miSouth (190°)24.2 mphMostly Cloudy
11:30 PM71.6 °F68.0 °F88 %29.86 in5.0 miSouth (190°)29.9 mphMostly Cloudy
Hourly data recorded from YSSY, located miles away from Terrey Hills, New South Wales




STORIES FROM OUR PARTNERS